Location: Rounton
(54.4000°N, 1.3500°W)
Time: 05:30:11
(UTC+00:00)

A-11 Canister half - Pass Details

Date: 07 December 2021
Orbit: 1516 x 1684 km, 47.2° (Epoch: 21 January)

Event Time Altitude Azimuth Distance (km) Brightness Sun altitude
Rises 14:22:01 0° 282° (WNW) 4,912 12.0 6.9°
Reaches altitude 10° 14:29:51 10° 244° (WSW) 3,942 12.4 6.2°
Maximum altitude 14:30:46 10° 238° (WSW) 3,930 12.6 6.2°
Drops below altitude 10° 14:31:42 10° 233° (SW) 3,943 12.9 6.1°
Sets 14:39:37 0° 195° (SSW) 4,922 13.1 5.4°
